Probability
0 0 0 0 0 0 0 0 0 0 0 0 0 0 0 0 0 0 0 0 0 0 0 0 0 0 0 0 0 0 0 0 0 0 0 0 0 0 0 0 0 0 0 0
0 0 0 0 0 0 0 0 0 0 0 0 0 0 0 0 0 0 0 0 0 0 0 0 0 0 0 0 0 0 0 0 0 0 0 0 0 0 0 0 0 0 0 0
0 0 0 0 0 0 0 0 0 0 0 0 0 0 0 0 0 0 0 0 0 0 0 0 0 0 0 0 0 0 0 0 0 0 0 0 0 0 0 0 0 0 0 0
0 0 0 0 0 0 0 0 0 0 0 0 0 0 0 0 0 0 0 0 0 0 0 0 0 0 0 0 0 0 0 0 0 0 0 0 0 0 0 0 0 0 0 0
0 0 0 0 0 0 0 0 0 0 0 0 0 0 0 0 0 0 0 0 0 0 0 0 0 0 0 0 0 0 0 0 0 0 0 0 0 0 0 0 0 0 0 0
0 0 0 0 0 0 0 0 0 0 0 0 0 0 0 0 0 0 0 0 0 0 0 0 0 0 0 0 0 0 0 0 0 0 0 0 0 0 0 0 0 0 0 0
0 0 0 0 0 0 0 0 0 0 0 0 0 0 0 0 0 0 0 0 0 0 0 0 0 0 0 0 0 0 0 0 0 0 0 0 0 0 0 0 0 0 0 0
0 0 0 0 0 0 0 0 0 0 0 0 0 0 0 0 0 0 0 0 0 0 0 0 0 0 0 0 0 0 0 0 0 0 0 0 0 0 0 0 0 0 0 0
0 0 0 0 0 0 0 0 0 0 0 0 0 0 0 0 0 0 0 0 0 0 0 0 0 0 0 0 0 0 0 0 0 0 0 0 0 0 0 0 0 0 0 0
0 0 0 0 0 0 0 0 0 0 0 0 0 0 0 0 0 0 0 0 0 0 0 0 0 0 0 0 0 0 0 0 0 0 0 0 0 0 0 0 0 0 0 0
0 0 0 0 0 0 0 0 0 0 0 0 0 0 0 0 0 0 0 0 0 0 0 0 0 0 0 0 0 0 0 0 0 0 0 0 0 0 0 0 0 0 0 0
0 0 0 0 0 0 0 0 0 0 0 0 0 0 0 0 0 0 0 0 0 0 0 0 0 0 0 0 0 0 0 0 0 0 0 0 0 0 0 0 0 0 0 0
0 0 0 0 0 0 0 0 0 0 0 0 0 0 0 0 0 0 0 0 0 0 0 0 0 0 0 0 0 0 0 0 0 0 0 0 0 0 0 0 0 0 0 0
0 0 0 0 0 0 0 0 0 0 0 0 0 0 0 0 0 0 0 0 0 0 0 0 0 0 0 0 0 0 0 0 0 0 0 0 0 0 0 0 0 0 0 0
0 0 0 0 0 0 0 0 0 0 0 0 0 0 0 0 0 0 0 0 0 0 0 0 0 0 0 0 0 0 0 0 0 0 0 0 0 0 0 0 0 0 0 0
0 0 0 0 0 0 0 0 0 0 0 0 0 0 0 0 0 0 0 0 0 0 0 0 0 0 0 0 0 0 0 0 0 0 0 0 0 0 0 0 0 0 0 0
0 0 0 0 0 0 0 0 0 0 0 0 0 0 0 0 0 0 0 0 0 0 0 0 0 0 0 0 0 0 0 0 0 0 0 0 0 0 0 0 0 0 0 0
0 0 0 0 0 0 0 0 0 0 0 0 0 0 0 0 0 0 0 0 0 0 0 0 0 0 0 0 0 0 0 0 0 0 0 0 0 0 0 0 0 0 0 0
0 0 0 0 0 0 0 0 0 0 0 0 0 0 0 0 0 0 0 0 0 0 0 0 0 0 0 0 0 0 0 0 0 0 0 0 0 0 0 0 0 0 0 0
0 0 0 0 0 0 0 0 0 0 0 0 0 0 0 0 0 0 0 0 0 0 0 0 0 0 0 0 0 0 0 0 0 0 0 0 0 0 0 0 0 0 0 0
0 0 0 0 0 0 0 0 0 0 0 0 0 0 0 0 0 0 0 0 0 0 0 0 0 0 0 0 0 0 0 0 0 0 0 0 0 0 0 0 0 0 0 0
0 0 0 0 0 0 0 0 0 0 0 0 0 0 0 0 0 0 0 0 0 0 0 0 0 0 0 0 0 0 0 0 0 0 0 0 0 0 0 0 0 0 0 0
0 0 0 0 0 0 0 0 0 0 0 0 0 0 0 0 0 0 0 0 0 0 0 0 0 0 0 0 0 0 0 0 0 0 0 0 0 0 0 0 0 0 0 0
0 0 0 0 0 0 0 0 0 0 0 0 0 0 0 0 0 0 0 0 0 0 0 0 0 0 0 0 0 0 0 0 0 0 0 0 0 0 0 0 0 0 0 0
0 0 0 0 0 0 0 0 0 0 0 0 0 0 0 0 0 0 0 0 0 0 0 0 0 0 0 0 0 0 0 0 0 0 0 0 0 0 0 0 0 0 0 0
0 0 0 0 0 0 0 0 0 0 0 0 0 0 0 0 0 0 0 0 0 0 0 0 0 0 0 0 0 0 0 0 0 0 0 0 0 0 0 0 0 0 0 0
0 0 0 0 0 0 0 0 0 0 0 0 0 0 0 0 0 0 0 0 0 0 0 0 0 0 0 0 0 0 0 0 0 0 0 0 0 0 0 0 0 0 0 0
Wind_Speed
16 17 15 16 19 18 20 21 22 26 27 26 20 13 10 11 10 10 12 14 16 17 17 17 16 15 13 12 10 8 9 11 12 12 12 13 14 14 15 16 17 17 18 18
13 15 16 21 24 26 25 24 25 26 25 14 6 7 10 13 12 11 13 16 18 18 18 18 17 15 15 14 12 10 10 11 11 11 11 12 13 14 15 16 16 16 17 18
12 8 10 16 17 18 15 14 14 15 9 7 10 13 15 16 13 11 15 17 18 18 17 16 16 15 14 14 14 12 11 11 11 10 11 12 12 13 15 15 15 16 17 18
8 6 13 9 2 6 10 13 13 12 9 9 12 14 15 14 11 13 17 18 18 17 16 15 14 13 13 14 13 13 12 12 10 9 11 12 12 14 14 14 14 15 16 18
5 8 14 11 7 3 5 8 4 1 6 12 15 16 13 10 10 16 18 18 16 15 14 14 14 13 14 15 14 13 13 12 11 9 11 12 13 14 13 13 14 14 15 17
5 6 10 6 3 0 3 7 3 4 14 19 20 18 14 15 17 18 18 15 13 12 13 14 13 13 14 15 15 15 14 14 14 13 12 13 13 13 12 12 13 13 14 16
8 10 12 7 1 2 5 5 4 14 20 21 19 17 18 20 19 17 16 14 12 12 12 13 14 13 14 15 15 15 15 15 15 14 13 13 12 11 10 10 11 12 14 14
7 9 11 3 5 5 10 14 18 21 20 20 20 21 21 19 17 14 13 13 13 12 14 14 14 14 15 16 16 15 15 15 15 14 12 9 11 10 9 10 11 12 12 13
9 11 8 3 8 13 17 20 20 18 19 21 21 21 18 15 12 12 12 12 12 13 15 15 14 14 16 17 16 16 16 16 15 14 12 10 10 9 8 9 9 9 9 10
14 15 16 17 18 19 18 19 20 21 21 19 18 15 12 10 10 11 12 13 13 14 16 16 16 16 16 16 15 15 15 15 14 13 12 10 7 7 8 8 9 9 9 9
20 20 19 14 13 15 18 20 21 18 15 12 10 9 8 9 11 11 13 13 13 14 16 18 17 17 17 16 15 15 15 14 13 11 11 9 8 7 9 9 9 9 9 9
18 18 19 20 19 20 19 17 15 13 10 6 5 7 9 10 11 12 14 15 15 16 18 18 18 18 17 15 14 14 13 12 10 9 9 8 8 8 11 14 16 18 18 14
20 19 19 20 18 15 13 12 9 6 5 6 7 7 10 11 12 14 16 17 17 17 18 18 18 18 17 15 13 13 13 12 10 9 9 8 7 8 8 8 13 18 19 20
15 15 17 15 14 12 9 7 5 4 5 6 8 10 11 13 14 16 17 17 18 18 18 18 18 18 16 14 13 13 13 12 11 9 9 8 8 7 7 8 7 7 11 18
11 11 12 13 10 7 4 3 4 6 8 10 10 11 13 15 17 18 18 18 18 18 18 18 18 18 15 13 13 13 12 9 9 9 9 8 8 7 7 8 8 7 6 8
13 11 9 6 5 3 4 5 7 9 11 13 14 15 16 16 17 18 18 17 18 19 18 17 17 17 15 13 13 11 10 14 13 10 9 8 7 7 7 7 7 7 7 6
8 7 5 4 4 5 6 8 10 12 13 15 17 16 17 18 18 18 18 17 16 17 17 17 17 15 14 13 13 10 10 11 15 11 9 8 8 8 7 7 7 7 7 7
5 5 5 5 6 7 9 11 12 14 15 16 17 17 18 19 20 19 18 18 17 17 17 16 14 14 14 14 11 10 9 9 9 9 9 8 8 7 7 7 8 8 7 7
3 4 5 7 8 9 11 13 15 15 16 16 17 18 18 18 17 18 17 17 18 18 15 13 19 18 15 15 15 10 10 10 10 9 9 11 10 8 7 7 7 7 7 6
6 7 9 10 11 11 13 15 16 17 16 15 17 18 18 17 16 17 16 16 13 13 13 16 17 15 14 13 16 10 11 11 11 10 9 8 8 8 7 7 7 7 7 6
9 10 11 12 14 14 14 16 16 18 17 16 16 17 18 17 16 15 15 15 13 14 15 20 14 12 12 14 17 11 11 11 11 10 9 8 8 7 7 7 7 7 6 6
11 12 13 14 15 16 15 14 15 17 17 16 16 15 16 16 15 14 13 13 14 17 15 13 12 16 18 21 12 11 11 11 10 9 8 8 7 7 6 7 6 6 6 6
12 13 14 15 16 17 16 14 15 15 15 16 16 17 17 16 13 13 14 12 12 18 16 13 18 25 28 17 11 11 11 11 10 9 8 7 6 6 6 6 6 6 6 6
13 14 13 13 13 15 16 15 12 12 13 15 14 14 15 13 12 11 12 17 20 22 15 18 25 27 25 12 10 10 10 9 9 8 8 6 5 5 5 5 5 5 6 7
12 11 11 12 13 12 13 12 12 12 13 12 14 14 12 11 12 13 14 16 19 21 15 17 23 23 16 10 10 10 9 9 9 8 7 5 4 4 4 4 5 5 5 6
12 12 11 11 11 11 10 10 10 11 11 12 12 11 11 11 13 13 12 14 18 19 15 12 13 14 11 10 10 10 9 9 8 7 5 4 4 3 3 4 6 5 5 5
11 11 10 10 10 9 9 9 11 11 11 12 13 13 13 12 12 13 15 13 13 12 12 12 11 11 10 10 10 9 8 7 6 5 4 3 2 3 4 5 4 5 5 5
Wind_Direction
263 276 279 272 269 259 248 255 266 276 283 293 319 336 339 337 336 332 339 343 342 337 332 330 329 328 327 322 316 302 278 266 262 261 256 250 246 241 235 230 228 224 222 220
266 269 273 272 266 263 262 261 262 271 279 307 355 347 337 335 331 323 331 334 332 329 326 324 324 324 322 319 317 306 289 278 274 268 260 253 247 242 236 231 228 224 222 220
281 303 292 268 257 254 246 246 253 267 296 4 340 337 330 324 320 316 324 326 322 320 319 319 319 320 317 315 314 307 296 288 283 275 267 260 253 246 240 234 229 225 222 221
287 285 249 258 305 271 264 265 267 272 298 324 328 322 311 307 310 316 321 318 317 317 316 315 314 315 314 311 308 305 299 294 289 278 271 267 258 249 242 235 229 225 224 224
252 263 275 282 287 259 255 277 275 279 334 329 328 314 307 324 318 313 313 313 312 311 309 307 309 314 312 308 308 305 302 301 298 283 274 270 261 254 245 237 232 227 224 224
222 248 267 288 102 360 267 272 137 336 329 329 328 317 320 329 317 311 311 312 313 309 306 305 311 315 309 306 307 306 308 307 304 298 286 276 269 262 251 239 234 229 227 225
230 244 267 283 97 222 251 333 355 320 321 320 315 308 311 313 310 309 310 314 315 311 307 308 313 312 306 306 306 309 309 306 303 300 293 285 278 267 255 243 236 231 231 228
220 227 251 188 172 229 305 320 313 313 315 313 310 309 308 309 310 312 315 315 317 313 308 309 312 312 306 305 309 310 308 305 304 303 300 289 279 269 254 242 237 234 233 231
223 239 274 233 260 295 307 306 310 313 312 310 307 306 309 310 312 314 313 313 313 310 306 306 309 310 305 306 310 310 307 305 306 306 303 293 281 270 256 240 236 235 231 231
264 264 275 284 290 295 304 310 312 310 308 307 305 309 312 312 313 314 313 313 313 310 306 306 310 309 304 306 308 306 304 305 306 306 304 298 281 264 253 240 234 233 232 231
264 277 286 285 294 306 311 309 307 308 309 310 312 316 317 314 313 312 309 307 307 305 303 304 308 306 305 307 308 304 302 302 304 302 301 297 283 266 257 246 238 235 237 234
271 288 298 304 312 314 310 308 311 311 313 323 325 317 314 309 308 306 306 307 306 304 304 306 307 304 304 306 305 302 300 301 303 303 301 293 289 281 257 252 254 247 243 242
279 295 301 304 307 310 307 307 310 312 315 317 315 309 306 305 305 304 303 304 305 306 304 304 304 302 303 306 303 298 295 297 298 297 295 293 289 284 285 268 252 250 246 243
291 298 296 301 307 310 308 307 305 301 303 302 303 305 304 302 301 301 301 304 306 304 303 303 302 301 304 307 301 295 294 293 292 292 292 290 284 278 275 277 275 262 248 244
290 294 293 300 302 301 303 302 306 309 311 311 309 304 302 301 301 301 303 305 303 301 302 304 303 303 309 307 299 295 293 290 292 292 288 285 281 275 270 266 265 266 262 251
301 299 294 290 288 290 297 304 306 308 309 309 308 306 304 300 299 300 301 304 305 304 304 303 301 302 306 302 297 293 289 288 291 291 288 282 276 270 265 261 260 258 255 250
289 293 294 285 287 294 298 300 299 300 303 302 303 304 302 301 300 301 306 309 305 300 298 297 297 299 299 295 292 290 289 289 290 288 282 279 273 267 261 257 254 254 251 244
258 264 268 271 282 292 297 298 298 298 298 299 301 301 301 302 303 305 306 306 303 299 296 297 300 301 297 294 292 287 284 282 281 280 279 276 271 262 257 252 250 249 249 242
247 253 262 268 274 282 288 293 296 297 297 298 300 301 302 299 298 299 303 303 301 299 299 302 306 304 297 294 292 285 282 281 280 277 274 274 273 260 250 244 243 241 237 230
256 260 267 274 277 278 286 293 297 299 300 300 299 299 299 299 300 301 301 296 288 288 295 300 301 297 296 296 296 289 284 282 281 282 278 271 265 259 248 239 234 232 227 223
262 268 273 280 286 289 292 296 298 298 300 299 296 294 295 297 297 297 296 295 295 298 302 303 300 297 299 299 299 290 286 285 284 283 282 278 268 256 246 235 227 221 218 215
267 274 279 285 290 293 295 297 296 296 297 295 293 291 292 293 294 293 286 286 295 301 304 300 298 298 301 304 297 291 288 287 287 285 283 278 268 255 242 229 221 213 209 206
276 279 281 285 289 293 296 294 290 290 291 292 293 294 294 295 296 295 296 297 301 303 303 296 297 301 304 305 294 291 290 290 290 288 284 279 267 253 239 224 213 205 200 197
279 281 280 282 288 290 289 288 285 285 286 288 287 286 289 292 291 289 291 297 301 302 300 296 299 303 307 301 294 292 292 291 290 289 287 279 265 248 229 213 204 196 192 189
274 274 276 279 282 282 284 288 288 285 286 288 290 291 288 286 289 295 297 298 300 303 300 300 301 303 303 295 294 293 292 291 292 293 286 276 259 240 215 199 193 186 181 179
274 277 280 277 277 281 285 287 287 291 294 295 296 297 297 295 295 296 297 298 300 301 301 298 299 301 298 296 294 294 294 297 298 295 287 273 251 224 196 186 182 177 171 167
273 276 277 276 273 272 274 279 284 289 293 295 298 299 298 298 298 300 301 300 301 301 299 298 298 298 297 296 295 296 296 294 293 291 282 262 229 196 178 174 168 161 158 156